This is the latest recevied weather packets stored in our database for station/object K4QXN. If no packets are shown the sender has not sent any weather packets the latest 10 day(s).
| Time | Temp. | Humidity | Pressure | Rain* | Wind** | Luminosity | Snow |
|---|---|---|---|---|---|---|---|
| 1777599511 | 14.44° C | 71% | 1009.8 hPa | 0 mm | - | - | - |
| 1777599209 | 13.89° C | 70% | 1009.8 hPa | 0 mm | - | - | - |
| 1777598907 | 13.89° C | 69% | 1009.4 hPa | 0 mm | - | - | - |
| 1777598605 | 14.44° C | 68% | 1009.4 hPa | 0 mm | - | - | - |
| 1777598303 | 15° C | 68% | 1009.4 hPa | 0 mm | - | - | - |
| 1777598002 | 15° C | 70% | 1009.4 hPa | 0 mm | - | - | - |
| 1777597700 | 15° C | 68% | 1009.4 hPa | 0 mm | - | - | - |
| 1777597398 | 15° C | 66% | 1009.4 hPa | 0 mm | - | - | - |
| 1777597096 | 15.56° C | 63% | 1009.1 hPa | 0 mm | - | - | - |
| 1777596794 | 16.11° C | 60% | 1009.1 hPa | 0 mm | - | - | - |
| 1777596492 | 16.67° C | 59% | 1008.8 hPa | 0 mm | - | - | - |
| 1777596190 | 17.22° C | 55% | 1008.8 hPa | 0 mm | - | - | - |
| 1777595889 | 17.78° C | 53% | 1008.8 hPa | 0 mm | - | - | - |
| 1777595587 | 18.33° C | 51% | 1008.8 hPa | 0 mm | - | - | - |
| 1777595285 | 18.33° C | 49% | 1008.8 hPa | 0 mm | - | - | - |
| 1777594682 | 19.44° C | 49% | 1008.4 hPa | 0 mm | - | - | - |
| 1777594380 | 19.44° C | 49% | 1008.4 hPa | 0 mm | - | - | - |
| 1777594078 | 20° C | 49% | 1008.4 hPa | 0 mm | - | - | - |
| 1777593776 | 20° C | 50% | 1008.4 hPa | 0 mm | - | - | - |
| 1777593464 | 20° C | 53% | 1008.4 hPa | 0 mm | - | - | - |
| 1777592859 | 20.56° C | 67% | 1008.1 hPa | 0 mm | - | - | - |
| 1777592688 | 20.56° C | 66% | 1008.1 hPa | 0 mm | - | - | - |
| 1777592386 | 20.56° C | 64% | 1008.1 hPa | 0 mm | - | - | - |
| 1777592083 | 20.56° C | 71% | 1007.7 hPa | 0 mm | - | - | - |
| 1777591782 | 20.56° C | 72% | 1008.1 hPa | 0 mm | - | - | - |
* Rain latest hour (hover to see other rain measurements)
** Current wind speed in m/s (hover to see current wind gust speed)